Flag for Germany Weather past 2 weeks in Wittenberge, Mecklenburg-Western Pomerania, Germany

Now
66 °F

Low clouds.


Feels Like: 66 °F
Forecast: 59 / 90 °F
Wind: 2 mph from Southwest

Location: Marnitz

Current Time: Aug 5, 2015 at 2:00:59 AM

Latest Report: Aug 5, 2015 at 1:00 AM


Visibility: 6 mi

Pressure: 29.97 "Hg

Humidity: 96%

Dew point: 65 °F

Location of WittenbergeLocation

Historic Weather in Wittenberge — Graph

°F

Wittenberge temperature yesterday

Maximum temperature yesterday: 91 °F (at 5:00 PM)
Minimum temperature yesterday: 61 °F (at 4:00 AM)
Average temperature yesterday: 76 °F

Past Weeks' High & Low Weather Summary

 TemperatureHumidityPressure
High91 °F (Aug 4, 5:00 PM)98% (Jul 25, 7:00 AM)30.15 "Hg (Jul 25, 7:00 AM)
Low43 °F (Aug 1, 6:00 AM)30% (Aug 2, 6:00 PM)29.44 "Hg (Jul 25, 4:00 PM)
Average64 °F71%29.84 "Hg
* Reported Jul 21 1:00 AM — Aug 5 1:00 AM, Wittenberge, Weather by CustomWeather, © 2015

Note: Actual official high and low records may vary slightly from our data, if they occured in-between our weather recording intervals... More about our weather records

Advertising

Wittenberge weather history for previous 24 hours

 ConditionsComfort  
Time TempWeatherWind HumidityBarometerVisibility
1:00 AM
Wed, Aug 5
66 °FLow clouds.2 mph96%29.97 "Hg6 mi
12:00 AM66 °FDrizzle. Low clouds.2 mph95%29.97 "Hg9 mi
11:00 PM
Tue, Aug 4
66 °FLight rain. Overcast.2 mph95%29.93 "Hg8 mi
10:00 PM68 °FLight rain. Overcast.3 mph90%29.95 "Hg14 mi
9:00 PM70 °FOvercast.3 mph83%29.90 "Hg7 mi
8:00 PM72 °FOvercast.9 mph77%29.87 "Hg11 mi
7:00 PM87 °FOvercast.2 mph37%29.79 "Hg34 mi
6:00 PM89 °FPartly sunny.2 mph35%29.79 "Hg25 mi
5:00 PM91 °FOvercast.5 mph31%29.80 "Hg22 mi
4:00 PM90 °FPartly sunny.3 mph35%29.81 "Hg19 mi
3:00 PM89 °FPartly sunny.2 mph35%29.83 "Hg19 mi
2:00 PM88 °FPartly sunny.3 mph37%29.84 "Hg19 mi
1:00 PM87 °FPartly sunny.5 mph38%29.86 "Hg22 mi
12:00 PM87 °FPassing clouds.5 mph39%29.88 "Hg16 mi
11:00 AM84 °FSunny.5 mph43%29.89 "Hg18 mi
10:00 AM80 °FPassing clouds.5 mph48%29.90 "Hg15 mi
9:00 AM76 °FSunny.5 mph51%29.92 "Hg18 mi
8:00 AM73 °FSunny.2 mph58%29.93 "Hg17 mi
7:00 AM69 °FPassing clouds.3 mph64%29.94 "Hg14 mi
6:00 AM61 °FSunny.2 mph83%29.95 "Hg11 mi
5:00 AM62 °FPassing clouds.2 mph83%29.97 "Hg12 mi
4:00 AM61 °FClear.2 mph85%29.98 "Hg14 mi
3:00 AM63 °FPassing clouds.1 mph80%29.98 "Hg17 mi
2:00 AM64 °FClear.2 mph78%30.00 "Hg17 mi
Weather by CustomWeather, © 2015

See weather overviewHow to use our weather pages